IZ0QWM-13 Scandriglia IT current weather conditions

sailwx.info

Wind from 080

Air temperature 15.6° C
Dewpoint 13.0° C

Last reported at 2016-Jun-28 04:44 UTC.
Time now 2016-Jun-28 06:07 UTC

Location: N 42°10' E 012°47'.
View on Google Maps.

See reports from other nearby stations

  
Tides and Currents Weather Stations Pressure Air Temp Water Temp Dewpoint Dewpoint Depression Visibility Wind Speed Wind Dir Waves Ship Positions
date/time (UTC)wind fromknots sea level pressurealtimeterstation pressurevisibilityair tempwater tempwave heightnotes
2016-Jun-28 04:44 080 15.6
2016-Jun-28 04:34 080 15.6
2016-Jun-28 04:24 068 15.6
2016-Jun-28 04:14 068 15.6
2016-Jun-28 04:04 068 15.6
2016-Jun-28 03:54 068 15.0
2016-Jun-28 03:44 068 15.0
2016-Jun-28 03:34 037 15.0
2016-Jun-28 03:24 031 14.4
2016-Jun-28 03:14 031 14.4
2016-Jun-28 03:04 031 15.0
2016-Jun-28 02:53 031 15.0
2016-Jun-28 02:44 031 15.6
2016-Jun-28 02:33 031 15.0
2016-Jun-28 02:23 031 15.0
2016-Jun-28 02:13 031 15.6
2016-Jun-28 02:03 031 15.0
2016-Jun-28 01:53 072 15.0
2016-Jun-28 01:43 072 14.4
2016-Jun-28 01:33 072 14.4
2016-Jun-28 01:23 072 15.0
2016-Jun-28 01:03 072 15.0
2016-Jun-28 00:53 072 15.0
2016-Jun-28 00:43 075 15.6
2016-Jun-28 00:33 075 15.0
2016-Jun-28 00:23 075 14.4
2016-Jun-28 00:13 075 15.0
2016-Jun-28 00:03 075 15.0
2016-Jun-27 23:53 075 15.0
2016-Jun-27 23:43 075 15.0
2016-Jun-27 23:33 075 15.0
2016-Jun-27 23:23 075 15.6
2016-Jun-27 23:13 075 15.6
2016-Jun-27 23:03 075 16.1
2016-Jun-27 22:53 075 15.6
2016-Jun-27 22:43 075 16.1
2016-Jun-27 22:33 075 16.7
2016-Jun-27 22:23 075 17.2
2016-Jun-27 22:13 075 16.1
2016-Jun-27 22:03 075 16.1
2016-Jun-27 21:53 075 16.7
2016-Jun-27 21:43 233 17.2
2016-Jun-27 21:33 233 17.8
2016-Jun-27 21:23 233 17.8
2016-Jun-27 21:13 233 17.8
2016-Jun-27 21:03 233 18.3
2016-Jun-27 20:53 233 18.9
2016-Jun-27 20:43 233 18.9
2016-Jun-27 20:33 233 18.9
2016-Jun-27 20:23 233 18.9
2016-Jun-27 20:13 233 19.4
2016-Jun-27 20:03 233 19.4
2016-Jun-27 19:53 269 19.4
2016-Jun-27 19:43 277 3 gusting 17 19.4
2016-Jun-27 19:33 217 20.0
2016-Jun-27 19:23 068 20.0
2016-Jun-27 19:13 155 20.0
2016-Jun-27 19:03 156 20.6
2016-Jun-27 18:53 233 4 gusting 17 21.1
2016-Jun-27 18:43 148 9 gusting 17 21.7
2016-Jun-27 18:33 184 9 gusting 17 21.7
2016-Jun-27 18:23 191 22.2
2016-Jun-27 18:13 359 22.8
2016-Jun-27 18:03 359 23.3
2016-Jun-27 17:53 359 1 gusting 17 23.3
2016-Jun-27 17:43 186 6 gusting 17 23.9
2016-Jun-27 17:33 211 2 gusting 17 23.9
2016-Jun-27 17:23 200 4 gusting 17 23.9
2016-Jun-27 17:13 181 2 gusting 17 24.4
2016-Jun-27 17:03 188 5 gusting 17 24.4
2016-Jun-27 16:53 170 0 gusting 17 24.4
2016-Jun-27 16:43 173 2 gusting 17 25.0
2016-Jun-27 16:33 200 6 gusting 17 25.0
2016-Jun-27 16:23 191 5 gusting 17 25.6
2016-Jun-27 16:13 158 7 gusting 17 25.0
2016-Jun-27 16:03 159 5 gusting 15 25.6
2016-Jun-27 15:53 136 4 gusting 15 25.0
2016-Jun-27 15:43 190 4 gusting 15 25.6
2016-Jun-27 15:33 124 5 gusting 14 25.6
2016-Jun-27 15:23 212 3 gusting 14 25.6
2016-Jun-27 15:13 198 6 gusting 14 25.6
2016-Jun-27 15:03 239 6 gusting 12 25.6
2016-Jun-27 14:53 156 6 gusting 16 25.6
2016-Jun-27 14:43 211 4 gusting 16 26.1
2016-Jun-27 14:33 148 2 gusting 16 25.6
2016-Jun-27 14:23 263 5 gusting 16 25.6
2016-Jun-27 14:13 198 5 gusting 16 26.1
2016-Jun-27 14:03 195 4 gusting 16 25.6
2016-Jun-27 13:53 165 3 gusting 16 25.6
2016-Jun-27 13:43 120 2 gusting 16 26.1
2016-Jun-27 13:33 187 6 gusting 16 25.6
2016-Jun-27 13:23 232 3 gusting 13 25.6
2016-Jun-27 13:13 166 4 gusting 13 25.6
2016-Jun-27 13:03 080 1 gusting 13 25.6
2016-Jun-27 12:53 221 6 gusting 12 26.1
2016-Jun-27 12:43 166 8 gusting 8 26.1
2016-Jun-27 12:33 117 3 gusting 11 25.6
2016-Jun-27 12:15 205 4 gusting 17 25.6
2016-Jun-27 12:05 222 3 gusting 17 25.6
2016-Jun-27 11:55 214 6 gusting 17 25.0
2016-Jun-27 11:45 173 5 gusting 17 25.6
2016-Jun-27 11:35 184 8 gusting 17 25.6
2016-Jun-27 11:25 174 4 gusting 14 25.0
2016-Jun-27 11:15 217 3 gusting 14 25.0
2016-Jun-27 11:05 190 6 gusting 14 25.0
2016-Jun-27 10:55 240 3 gusting 14 25.6
2016-Jun-27 10:45 210 3 gusting 14 25.6
2016-Jun-27 10:35 225 5 gusting 11 25.6
2016-Jun-27 10:25 253 25.0
2016-Jun-27 10:15 173 2 gusting 10 25.6
2016-Jun-27 10:05 172 4 gusting 10 24.4
2016-Jun-27 09:55 191 2 gusting 8 25.0
2016-Jun-27 09:45 229 2 gusting 8 25.0
2016-Jun-27 09:35 332 1 gusting 8 25.0
2016-Jun-27 09:25 359 24.4
2016-Jun-27 09:15 359 24.4
2016-Jun-27 09:05 176 2 gusting 5 24.4
2016-Jun-27 08:55 201 23.9
2016-Jun-27 08:45 291 23.3
2016-Jun-27 08:35 291 22.8
2016-Jun-27 08:25 262 1 gusting 1 22.8
2016-Jun-27 08:15 321 22.2
2016-Jun-27 08:05 283 22.2
2016-Jun-27 07:55 210 21.7
2016-Jun-27 07:45 173 21.1
2016-Jun-27 07:35 300 21.1
2016-Jun-27 07:25 001 21.1
2016-Jun-27 07:15 001 21.1
2016-Jun-27 07:05 001 20.6
2016-Jun-27 06:55 001 20.0
2016-Jun-27 06:45 001 20.0
2016-Jun-27 06:35 001 19.4
2016-Jun-27 06:25 001 18.9
2016-Jun-27 06:15 001 18.9
2016-Jun-27 06:05 001 18.3
2016-Jun-27 05:55 001 17.8
2016-Jun-27 05:45 001 17.8
2016-Jun-27 05:35 001 17.2
2016-Jun-27 05:25 001 17.2
2016-Jun-27 05:15 001 17.2
2016-Jun-27 05:05 037 16.7
2016-Jun-27 04:55 037 16.7
2016-Jun-27 04:45 037 16.7
2016-Jun-27 04:35 037 16.7
2016-Jun-27 04:25 037 16.7
2016-Jun-27 04:15 037 16.7
2016-Jun-27 04:05 037 17.2
2016-Jun-27 03:55 037 17.2
2016-Jun-27 03:45 037 17.2
2016-Jun-27 03:35 037 16.7
2016-Jun-27 03:25 037 17.2
2016-Jun-27 03:15 037 16.7
2016-Jun-27 03:05 037 16.7
2016-Jun-27 02:55 037 16.7
2016-Jun-27 02:45 037 16.7
2016-Jun-27 02:35 037 16.7
2016-Jun-27 02:25 037 17.2
2016-Jun-27 02:15 037 17.2
2016-Jun-27 02:05 037 17.2
2016-Jun-27 01:55 037 17.2
2016-Jun-27 01:45 037 17.2
2016-Jun-27 01:35 037 17.2
2016-Jun-27 01:25 037 17.8
2016-Jun-27 01:15 037 18.3
2016-Jun-27 01:05 037 17.8
2016-Jun-27 00:55 270 18.3
2016-Jun-27 00:45 270 18.3
2016-Jun-27 00:35 270 17.8
2016-Jun-27 00:25 270 18.3
2016-Jun-27 00:15 270 18.9
2016-Jun-27 00:05 270 18.3
2016-Jun-26 23:55 270 18.9
2016-Jun-26 23:45 270 18.9
2016-Jun-26 23:35 270 18.9
2016-Jun-26 23:25 270 18.9
2016-Jun-26 23:15 270 18.9
2016-Jun-26 23:05 270 18.9
2016-Jun-26 22:55 270 18.9
2016-Jun-26 22:45 270 19.4
2016-Jun-26 22:35 270 20.0
2016-Jun-26 22:25 270 20.0
2016-Jun-26 22:15 270 20.0
2016-Jun-26 22:05 270 20.0
2016-Jun-26 21:55 270 20.0
2016-Jun-26 21:45 270 20.0
2016-Jun-26 21:35 270 20.6
2016-Jun-26 21:25 270 20.6
2016-Jun-26 21:15 270 20.6
2016-Jun-26 21:05 270 20.6
2016-Jun-26 20:55 270 21.1
2016-Jun-26 20:45 270 21.1
2016-Jun-26 20:35 270 21.7
2016-Jun-26 20:25 228 21.7
2016-Jun-26 20:15 287 21.7
2016-Jun-26 20:05 287 21.7
2016-Jun-26 19:55 278 22.8
2016-Jun-26 19:45 278 22.8
2016-Jun-26 19:35 278 23.3
2016-Jun-26 19:25 278 23.3
2016-Jun-26 19:15 278 23.3
2016-Jun-26 19:05 318 23.9
2016-Jun-26 18:55 318 23.9
2016-Jun-26 18:45 217 24.4
2016-Jun-26 18:35 217 24.4
2016-Jun-26 18:25 217 25.0
2016-Jun-26 18:15 359 25.0
2016-Jun-26 18:05 359 1 gusting 13 25.6
2016-Jun-26 17:55 207 26.1
2016-Jun-26 17:45 233 2 gusting 13 25.6
2016-Jun-26 17:35 231 26.7
2016-Jun-26 17:25 219 26.7
2016-Jun-26 17:15 166 27.2
2016-Jun-26 17:05 300 27.8
2016-Jun-26 16:55 301 28.3
2016-Jun-26 16:45 204 28.3
2016-Jun-26 16:35 232 6 gusting 13 28.3
2016-Jun-26 16:25 240 1 gusting 13 28.3
2016-Jun-26 16:15 153 4 gusting 13 28.9
2016-Jun-26 16:05 165 28.9
2016-Jun-26 15:55 200 6 gusting 13 28.9
2016-Jun-26 15:45 207 29.4
2016-Jun-26 15:35 204 6 gusting 13 28.9
2016-Jun-26 15:25 250 3 gusting 13 28.9
2016-Jun-26 15:15 205 9 gusting 13 27.8
2016-Jun-26 15:05 205 3 gusting 13 28.9
2016-Jun-26 14:55 204 6 gusting 13 30.0
2016-Jun-26 14:45 210 3 gusting 10 29.4
2016-Jun-26 14:35 127 4 gusting 10 30.0
2016-Jun-26 14:25 193 29.4
2016-Jun-26 14:15 235 3 gusting 9 28.9
2016-Jun-26 14:05 217 28.3
2016-Jun-26 13:55 180 30.0
2016-Jun-26 13:45 242 30.6
2016-Jun-26 13:35 222 2 gusting 4 30.6
2016-Jun-26 13:25 314 30.6
2016-Jun-26 13:15 008 30.0
2016-Jun-26 13:05 176 30.0
2016-Jun-26 12:55 222 28.9
2016-Jun-26 12:45 242 28.3
2016-Jun-26 12:35 210 28.3
2016-Jun-26 12:25 336 28.3
2016-Jun-26 12:15 353 28.3
2016-Jun-26 12:05 269 3 gusting 6 28.3
2016-Jun-26 11:55 132 28.3
2016-Jun-26 11:45 193 27.8
2016-Jun-26 11:35 214 2 gusting 4 27.8
2016-Jun-26 11:25 246 27.2
2016-Jun-26 11:15 262 26.7
2016-Jun-26 11:05 274 1 gusting 4 27.8
2016-Jun-26 10:55 177 27.2
2016-Jun-26 10:45 277 27.2
2016-Jun-26 10:35 281 27.2
2016-Jun-26 10:25 270 26.7
2016-Jun-26 10:15 235 26.7
2016-Jun-26 10:05 219 26.1
2016-Jun-26 09:55 198 26.1
2016-Jun-26 09:45 345 26.1
2016-Jun-26 09:35 291 26.1
2016-Jun-26 09:25 238 25.6
2016-Jun-26 09:15 238 25.6
2016-Jun-26 09:05 238 25.0
2016-Jun-26 08:55 316 25.0
2016-Jun-26 08:45 285 25.0
2016-Jun-26 08:35 259 25.0
2016-Jun-26 08:25 259 24.4
2016-Jun-26 08:15 359 24.4
2016-Jun-26 08:05 359 23.9
2016-Jun-26 07:55 291 23.9
2016-Jun-26 07:45 224 23.9
2016-Jun-26 07:35 239 23.9
2016-Jun-26 07:25 224 23.9
2016-Jun-26 07:15 224 22.8
2016-Jun-26 07:05 058 23.9
2016-Jun-26 06:55 058 23.3
2016-Jun-26 06:45 058 23.3
2016-Jun-26 06:35 058 22.2
2016-Jun-26 06:25 058 21.1
2016-Jun-26 06:15 058 20.6
2016-Jun-26 06:05 058 20.0